When you browse on this site, cookies collect data to enhance your experience and personalize the content and advertising you see.
Visit our Privacy Policy to learn more. By continuing to use the site, you agree to this use of cookies and data.
  • In Denmark
  • List of Countries
  • For 7 days
  • Water Temperature
  • Satellite Maps
  • Weather Map
  • Weather Widgets
  • user-avatar
    Login

    Hourly Weather Reykjavík

    Today, 16 January, Wednesday

    Time Temperature Precipitation Wind Pressure Humidity
    00:00 -11°C° 0 mm 7 mps 752 mmHg 71%
    01:00 -10°C° 0 mm 6 mps 753 mmHg 71%
    02:00 -11°C° 0 mm 6 mps 754 mmHg 71%
    03:00 -11°C° 0 mm 6 mps 755 mmHg 71%
    04:00 -11°C° 0 mm 5 mps 755 mmHg 71%
    05:00 -11°C° 0 mm 5 mps 756 mmHg 71%
    06:00 -11°C° 0 mm 5 mps 757 mmHg 70%
    07:00 -11°C° 0 mm 5 mps 757 mmHg 70%
    08:00 -10°C° 0 mm 4 mps 758 mmHg 70%
    09:00 -11°C° 0 mm 5 mps 759 mmHg 73%
    10:00 -11°C° 0 mm 5 mps 759 mmHg 76%
    11:00 -10°C° 0 mm 5 mps 760 mmHg 79%
    12:00 -10°C° 0 mm 5 mps 760 mmHg 80%
    13:00 -10°C° 0 mm 5 mps 760 mmHg 81%
    14:00 -8°C° 0 mm 4 mps 760 mmHg 82%
    15:00 -8°C° 0 mm 4 mps 760 mmHg 82%
    16:00 -8°C° 0 mm 4 mps 760 mmHg 82%
    17:00 -8°C° 0 mm 4 mps 760 mmHg 83%
    18:00 -8°C° 0 mm 3 mps 760 mmHg 81%
    19:00 -8°C° 0 mm 3 mps 760 mmHg 80%
    20:00 -8°C° 0 mm 3 mps 761 mmHg 79%
    21:00 -8°C° 0 mm 3 mps 760 mmHg 77%
    22:00 -7°C° 0 mm 2 mps 760 mmHg 75%
    23:00 -7°C° 0 mm 2 mps 760 mmHg 73%

    Tomorrow, 17 January, Thursday

    Time Temperature Precipitation Wind Pressure Humidity
    00:00 -6°C° 0 mm 2 mps 760 mmHg 72%
    01:00 -7°C° 0 mm 3 mps 759 mmHg 71%
    02:00 -7°C° 0 mm 3 mps 759 mmHg 71%
    03:00 -7°C° 0 mm 3 mps 759 mmHg 73%
    04:00 -7°C° 0 mm 3 mps 758 mmHg 74%
    05:00 -8°C° 0 mm 4 mps 757 mmHg 76%
    06:00 -7°C° 0.1 mm 4 mps 757 mmHg 80%
    07:00 -7°C° 0.1 mm 4 mps 756 mmHg 83%
    08:00 -6°C° 0.1 mm 5 mps 756 mmHg 87%
    09:00 -6°C° 0.2 mm 5 mps 755 mmHg 89%
    10:00 -6°C° 0.2 mm 5 mps 755 mmHg 90%
    11:00 -5°C° 0.2 mm 5 mps 755 mmHg 92%
    12:00 -4°C° 0.8 mm 4 mps 754 mmHg 94%
    13:00 -3°C° 0.8 mm 4 mps 754 mmHg 95%
    14:00 -2°C° 0.8 mm 4 mps 753 mmHg 96%
    15:00 -2°C° 1.3 mm 4 mps 753 mmHg 96%
    16:00 -1°C° 1.3 mm 4 mps 753 mmHg 95%
    17:00 0°C° 1.3 mm 4 mps 753 mmHg 95%
    18:00 0°C° 1.1 mm 4 mps 753 mmHg 93%
    19:00 0°C° 1.1 mm 4 mps 753 mmHg 91%
    20:00 +1°C° 1.1 mm 4 mps 753 mmHg 89%
    21:00 0°C° 0.2 mm 5 mps 753 mmHg 88%
    22:00 -1°C° 0.2 mm 5 mps 753 mmHg 87%
    23:00 -2°C° 0.2 mm 5 mps 753 mmHg 87%

    Day after tomorrow, 18 January, Friday

    Time Temperature Precipitation Wind Pressure Humidity
    00:00 -2°C° 0 mm 5 mps 753 mmHg 87%
    01:00 -2°C° 0 mm 5 mps 754 mmHg 87%
    02:00 -4°C° 0 mm 5 mps 754 mmHg 87%
    03:00 -2°C° 0 mm 5 mps 754 mmHg 88%
    04:00 -1°C° 0 mm 5 mps 754 mmHg 89%
    05:00 0°C° 0 mm 5 mps 754 mmHg 91%
    06:00 -1°C° 0 mm 6 mps 754 mmHg 90%
    07:00 -1°C° 0 mm 6 mps 755 mmHg 90%
    08:00 -1°C° 0 mm 6 mps 755 mmHg 89%
    09:00 -1°C° 0 mm 7 mps 755 mmHg 88%
    10:00 -1°C° 0 mm 7 mps 755 mmHg 88%
    11:00 -1°C° 0 mm 7 mps 755 mmHg 87%
    12:00 -1°C° 0 mm 7 mps 755 mmHg 87%
    13:00 -1°C° 0 mm 8 mps 755 mmHg 86%
    14:00 -1°C° 0 mm 8 mps 755 mmHg 86%
    15:00 -1°C° 0.4 mm 8 mps 754 mmHg 87%
    16:00 -1°C° 0.4 mm 9 mps 754 mmHg 87%
    17:00 -1°C° 0.4 mm 9 mps 754 mmHg 88%
    18:00 -1°C° 0.2 mm 9 mps 754 mmHg 88%
    19:00 -2°C° 0.2 mm 10 mps 754 mmHg 89%
    20:00 -2°C° 0.2 mm 10 mps 753 mmHg 89%
    21:00 -2°C° 0.2 mm 10 mps 753 mmHg 89%
    22:00 0°C° 0.2 mm 10 mps 753 mmHg 90%
    23:00 0°C° 0.2 mm 10 mps 753 mmHg 90%

    19 January, Saturday

    Time Temperature Precipitation Wind Pressure Humidity
    00:00 0°C° 0.6 mm 10 mps 752 mmHg 92%
    01:00 +1°C° 0.6 mm 11 mps 752 mmHg 93%
    02:00 +1°C° 0.6 mm 11 mps 751 mmHg 94%
    03:00 +1°C° 0.7 mm 11 mps 751 mmHg 93%
    04:00 +1°C° 0.7 mm 11 mps 750 mmHg 93%
    05:00 0°C° 0.7 mm 12 mps 749 mmHg 92%
    06:00 0°C° 0.6 mm 12 mps 748 mmHg 92%
    07:00 0°C° 0.6 mm 13 mps 748 mmHg 92%
    08:00 0°C° 0.6 mm 14 mps 747 mmHg 91%
    09:00 0°C° 2.9 mm 12 mps 746 mmHg 92%
    10:00 +1°C° 2.9 mm 10 mps 746 mmHg 93%
    11:00 +1°C° 2.9 mm 8 mps 745 mmHg 93%
    12:00 0°C° 0.9 mm 9 mps 746 mmHg 88%
    13:00 -2°C° 0.9 mm 10 mps 746 mmHg 82%
    14:00 -2°C° 0.9 mm 11 mps 746 mmHg 76%
    15:00 -3°C° 0.3 mm 10 mps 747 mmHg 74%
    16:00 -3°C° 0.3 mm 10 mps 748 mmHg 72%
    17:00 -4°C° 0.3 mm 10 mps 749 mmHg 71%
    18:00 -4°C° 0.2 mm 10 mps 749 mmHg 68%
    19:00 -4°C° 0.2 mm 10 mps 750 mmHg 66%
    20:00 -4°C° 0.2 mm 10 mps 750 mmHg 64%
    21:00 -4°C° 0.3 mm 10 mps 750 mmHg 64%
    22:00 -4°C° 0.3 mm 10 mps 750 mmHg 65%
    23:00 -4°C° 0.3 mm 11 mps 750 mmHg 65%

    20 January, Sunday

    Time Temperature Precipitation Wind Pressure Humidity
    00:00 -4°C° 0.4 mm 11 mps 750 mmHg 66%
    01:00 -4°C° 0.4 mm 11 mps 750 mmHg 67%
    02:00 -5°C° 0.4 mm 12 mps 750 mmHg 68%
    03:00 -6°C° 0.3 mm 11 mps 751 mmHg 67%
    04:00 -6°C° 0.3 mm 11 mps 751 mmHg 67%
    05:00 -6°C° 0.3 mm 11 mps 751 mmHg 66%
    06:00 -6°C° 0.5 mm 12 mps 751 mmHg 67%
    07:00 -6°C° 0.5 mm 13 mps 752 mmHg 68%
    08:00 -6°C° 0.5 mm 14 mps 752 mmHg 69%
    09:00 -6°C° 0.3 mm 14 mps 752 mmHg 69%
    10:00 -6°C° 0.3 mm 14 mps 752 mmHg 70%
    11:00 -6°C° 0.3 mm 14 mps 753 mmHg 70%
    12:00 -6°C° 0.3 mm 13 mps 753 mmHg 71%
    13:00 -5°C° 0.3 mm 12 mps 752 mmHg 71%
    14:00 -4°C° 0.3 mm 11 mps 752 mmHg 71%
    15:00 -4°C° 0.2 mm 10 mps 752 mmHg 72%
    16:00 -4°C° 0.2 mm 9 mps 752 mmHg 73%
    17:00 -2°C° 0.2 mm 7 mps 751 mmHg 75%
    18:00 -2°C° 0.2 mm 7 mps 750 mmHg 78%
    19:00 -2°C° 0.2 mm 7 mps 749 mmHg 82%
    20:00 -2°C° 0.2 mm 6 mps 747 mmHg 86%
    21:00 -3°C° 0.8 mm 9 mps 745 mmHg 87%
    22:00 -3°C° 0.8 mm 11 mps 742 mmHg 89%
    23:00 -2°C° 0.8 mm 13 mps 740 mmHg 90%

    21 January, Monday

    Time Temperature Precipitation Wind Pressure Humidity
    00:00 -3°C° 1.8 mm 11 mps 738 mmHg 86%
    01:00 -3°C° 1.8 mm 10 mps 737 mmHg 81%
    02:00 -2°C° 1.8 mm 8 mps 735 mmHg 77%
    03:00 -3°C° 0 mm 7 mps 735 mmHg 75%
    04:00 -4°C° 0 mm 5 mps 734 mmHg 72%
    05:00 -5°C° 0 mm 3 mps 734 mmHg 70%
    06:00 -5°C° 0.1 mm 3 mps 734 mmHg 70%
    07:00 -5°C° 0.1 mm 3 mps 735 mmHg 71%
    08:00 -4°C° 0.1 mm 2 mps 735 mmHg 71%
    09:00 -5°C° 0 mm 4 mps 735 mmHg 70%
    10:00 -6°C° 0 mm 5 mps 736 mmHg 70%
    11:00 -5°C° 0 mm 6 mps 736 mmHg 69%
    12:00 -6°C° 0.3 mm 8 mps 737 mmHg 76%
    13:00 -7°C° 0.3 mm 10 mps 737 mmHg 82%
    14:00 -7°C° 0.3 mm 11 mps 738 mmHg 89%
    15:00 -8°C° 0.1 mm 11 mps 739 mmHg 88%
    16:00 -8°C° 0.1 mm 10 mps 740 mmHg 87%
    17:00 -9°C° 0.1 mm 10 mps 741 mmHg 86%
    18:00 -11°C° 0 mm 11 mps 742 mmHg 83%
    19:00 -11°C° 0 mm 12 mps 743 mmHg 81%
    20:00 -11°C° 0 mm 13 mps 745 mmHg 79%
    21:00 -12°C° 0 mm 13 mps 746 mmHg 79%
    22:00 -13°C° 0 mm 14 mps 747 mmHg 80%
    23:00 -13°C° 0 mm 15 mps 748 mmHg 80%
    Show more